Simultaneous Nadir Overpasses (SNOs) Predictions

Prediction of SNOs between GOES-14 and NOAA-20 Satellite Orbit:

Table of predicted SNOs for the next 14.0 days since TLE Epoch: 12/21/2018
Index Date Time (GOES-14) GOES-14 Lat,Lon NOAA-20 Lat,Lon Distance(km) Time Diff (sec)
1 12/21/2018 20:20:27 0.01,-104.04 -0.05,-104.25 25.02 80
2 12/22/2018 20:04:24 -0.00,-104.04 0.98, -99.73 492.04 80
3 12/24/2018 08:26:13 -0.01,-104.26 0.17,-105.00 85.49 80
4 12/25/2018 08:04:50 0.00,-104.25 -0.86,-100.48 430.40 80
5 12/26/2018 20:26:47 0.02,-104.03 -0.35,-105.78 198.73 80
6 12/27/2018 20:10:42 0.01,-104.04 0.62,-101.24 318.26 80
7 12/29/2018 08:32:33 -0.03,-104.28 0.47,-106.53 257.13 80
8 12/30/2018 08:11:08 -0.02,-104.27 -0.50,-102.00 259.21 80
9 12/31/2018 20:33:05 0.03,-104.04 -0.70,-107.30 370.91 80
10 01/01/2019 20:17:02 0.02,-104.05 0.33,-102.77 146.33 80
11 01/03/2019 08:38:51 -0.03,-104.30 0.82,-108.05 427.34 80
12 01/04/2019 08:17:28 -0.02,-104.30 -0.21,-103.52 89.18 80




NCC Satellite Simultaneous Nadir Overpasses (SNOs) Prediction Service
